GEFSGL_con_cape1000_264.txt.gz
Probability
81 77 77 68 71 71 68 74 74 74 71 74 71 71 71 71 68 68 68 61 61 58 58 55 55 58 61 65 61 58 58 58 48 45 45 45 39 35 16 23 29 19 19
71 71 68 68 71 71 68 71 68 68 74 71 71 68 65 65 68 61 58 58 58 58 58 55 52 58 61 58 58 61 58 55 48 48 42 39 39 32 29 29 26 19 19
65 65 65 68 65 68 71 65 65 61 65 68 68 65 61 55 55 55 52 58 58 58 55 55 55 58 65 61 68 55 55 42 55 52 48 42 42 39 32 29 26 23 19
65 65 68 68 68 65 61 61 61 58 58 58 58 58 58 52 52 52 48 48 52 55 58 58 58 58 65 61 58 65 58 58 55 52 52 32 42 35 35 29 26 26 23
65 68 68 65 65 58 58 58 55 58 55 58 52 48 48 48 45 42 42 42 45 52 52 52 48 42 45 45 42 52 48 52 48 48 48 39 32 32 29 29 29 26 26
65 65 68 61 58 55 55 55 58 58 58 55 52 52 52 45 35 32 42 42 42 39 45 45 48 35 26 26 23 23 29 42 45 35 39 39 42 35 32 29 26 23 23
58 58 61 61 61 61 58 58 58 58 52 52 52 55 55 52 32 16 13 42 45 39 42 42 35 35 29 35 23 10 10 10 16 29 35 35 48 42 32 26 26 23 23
55 55 55 61 61 61 61 58 58 58 58 58 58 55 55 48 26 10 6 23 39 42 42 39 35 39 32 35 32 26 23 23 19 13 23 29 29 39 42 35 35 32 29
58 61 58 61 58 58 58 58 58 58 58 58 58 58 58 52 19 10 3 32 39 42 45 35 35 35 26 19 29 35 39 39 23 10 16 19 16 16 16 19 23 23 16
55 58 52 58 58 58 61 61 58 58 58 58 58 58 55 52 19 13 3 29 29 32 39 39 23 29 16 16 26 35 39 39 35 29 13 10 10 10 0 6 19 19 16
52 52 52 55 55 55 58 58 58 55 55 55 55 55 52 52 16 3 0 23 29 32 35 39 35 10 3 3 6 23 16 16 29 29 26 26 23 23 23 6 13 23 16
45 45 42 48 45 45 55 61 55 55 52 48 48 45 42 39 16 10 0 0 10 16 26 26 16 3 0 0 3 3 6 3 16 23 26 26 29 32 32 23 23 23 26
42 39 39 42 45 48 48 48 52 52 42 42 39 39 35 32 19 6 0 0 0 10 16 10 0 0 0 0 0 0 0 3 6 16 16 26 32 26 26 29 29 23 23
39 39 45 32 35 45 48 26 26 23 29 35 35 35 29 26 26 16 3 0 0 0 3 3 0 0 0 3 0 0 3 6 6 13 13 16 23 23 26 23 19 23 10
32 26 35 26 26 39 29 23 16 19 19 23 26 26 26 23 19 13 16 10 6 6 10 13 10 6 10 10 10 16 16 13 6 6 6 16 13 13 19 16 19 16 10
26 16 19 19 23 16 10 10 6 10 6 6 10 10 16 10 6 0 3 3 3 3 6 16 16 16 13 13 13 13 10 13 10 16 10 13 3 10 10 10 10 10 10
19 26 23 19 16 13 13 13 13 10 3 0 0 0 3 0 0 0 0 0 0 0 6 13 26 26 23 16 16 19 16 16 13 13 13 3 6 6 3 3 6 13 13
10 6 10 10 10 6 10 10 10 13 10 10 0 0 0 0 0 0 0 0 0 0 6 10 19 23 19 19 16 16 19 19 19 16 13 13 6 6 6 3 6 3 3
6 10 10 10 13 10 6 3 6 10 10 6 6 0 0 0 0 0 0 3 3 3 3 6 10 10 10 10 13 13 13 10 19 13 13 13 10 10 10 10 10 3 3
13 6 10 10 13 10 10 6 10 16 10 10 6 10 0 0 0 0 0 3 3 6 6 6 6 10 10 6 10 13 10 10 10 10 10 13 13 10 6 3 3 3 3
10 6 6 10 10 10 10 13 13 6 3 3 3 0 0 3 6 3 3 6 3 6 6 6 3 6 10 10 10 10 10 3 6 6 6 10 13 13 10 6 0 3 3
6 3 3 6 6 3 3 6 6 3 3 0 0 0 0 0 0 0 0 3 3 3 3 3 3 3 6 3 6 6 3 3 3 3 6 6 6 6 3 3 3 0 0
10 10 3 6 6 0 6 6 6 3 0 0 0 0 0 0 0 0 0 0 3 3 6 6 6 0 0 0 0 0 0 0 0 0 0 0 0 0 0 0 0 0 0
6 10 10 10 10 10 6 3 0 0 0 0 0 0 0 0 0 0 0 3 3 3 3 0 0 0 0 0 0 0 0 0 0 0 0 0 0 0 0 0 0 0 0
3 6 10 10 10 10 6 0 0 0 0 0 0 0 0 0 3 3 3 3 3 0 0 0 0 0 0 0 3 3 0 0 0 0 0 0 3 0 0 0 0 0 0
0 3 6 6 3 3 3 0 0 0 0 0 0 0 0 0 0 0 0 0 0 0 0 0 0 0 0 0 0 0 0 0 0 0 0 0 0 0 0 0 0 0 0

GEFSGL_con_cape1000_270.txt.gz
Probability
45 45 45 42 39 39 45 35 32 23 29 29 26 29 26 26 29 32 19 26 26 26 19 19 13 19 13 16 13 10 6 3 3 3 0 3 3 3 6 3 3 3 3
45 42 48 48 42 42 45 45 29 35 35 32 29 32 26 26 29 29 29 26 26 23 19 13 13 16 13 13 13 10 10 6 6 6 3 3 3 6 6 6 3 6 6
42 42 42 42 45 39 48 39 42 39 39 42 35 35 29 29 26 26 23 23 23 23 19 16 13 13 13 13 16 16 16 13 10 10 10 3 3 3 3 3 6 3 10
39 45 35 39 39 42 42 45 48 48 42 32 35 29 32 29 29 29 29 26 23 19 19 19 19 19 16 16 16 16 16 16 16 13 13 13 6 6 6 6 6 6 6
39 39 35 39 39 39 45 52 45 48 42 39 42 35 32 29 29 29 29 26 26 23 19 19 19 19 19 19 23 16 16 16 16 16 13 13 10 10 10 6 13 6 6
32 32 32 35 32 35 39 42 52 52 45 45 48 45 39 39 32 26 26 26 26 26 23 23 26 26 23 16 16 16 13 19 16 16 19 16 16 10 10 13 13 10 10
32 29 26 26 26 29 42 42 48 48 48 48 48 42 45 45 29 19 16 19 26 23 26 23 23 29 16 23 16 16 13 3 10 16 16 16 13 10 10 10 10 10 10
26 26 23 23 29 29 35 39 45 45 48 48 48 45 45 45 29 16 16 10 16 23 19 23 19 23 16 16 19 16 10 10 6 3 6 13 13 13 10 13 6 6 3
26 26 26 26 26 26 26 32 32 39 39 42 45 42 45 39 29 19 13 10 16 13 19 26 23 16 13 6 13 13 10 10 6 3 3 3 3 3 6 3 3 3 3
26 26 26 29 29 29 29 23 26 29 35 42 45 42 39 39 29 16 3 13 13 13 16 16 10 10 10 3 3 6 6 10 10 10 3 3 3 3 3 0 0 3 0
13 19 23 23 26 26 23 16 29 29 29 26 26 32 32 29 23 10 3 10 13 13 13 6 6 3 3 3 3 3 6 6 6 6 6 6 3 0 0 0 0 3 3
16 16 19 26 26 23 23 23 16 19 26 23 23 19 16 23 19 10 0 0 6 10 10 10 3 3 3 3 3 3 3 3 3 6 6 6 6 6 3 3 0 0 3
16 16 13 13 10 10 13 16 13 16 13 10 13 13 10 10 6 3 0 0 0 6 6 6 3 0 0 0 0 0 0 3 3 3 6 6 3 3 3 0 0 3 0
13 10 13 10 10 10 10 10 10 6 6 10 10 6 6 6 3 0 0 0 0 0 0 0 0 0 0 0 0 0 0 3 3 3 3 0 0 0 0 0 0 0 0
16 10 10 6 6 13 6 6 6 3 10 6 6 6 6 3 3 3 3 0 0 0 0 0 0 0 0 0 0 0 0 0 0 0 0 0 0 0 0 0 0 0 0
6 10 10 10 3 3 6 3 3 3 3 3 3 3 3 3 3 3 0 3 0 0 0 0 0 0 0 0 0 0 0 0 0 0 0 0 0 0 0 0 0 0 0
6 3 3 3 3 6 6 6 6 3 0 0 0 0 0 0 0 0 0 0 0 0 0 0 0 3 3 0 0 0 0 0 0 0 0 0 0 0 0 0 0 0 0
6 6 6 3 3 3 3 6 6 6 6 0 0 0 0 0 0 0 0 0 0 0 0 0 0 3 3 3 3 3 3 0 0 0 0 0 0 0 0 0 0 0 0
6 6 6 3 3 3 3 3 3 3 3 0 0 0 0 0 0 0 0 0 0 0 0 0 0 0 3 3 3 0 0 0 0 0 0 0 0 0 0 0 0 0 0
6 6 6 3 3 3 3 3 0 0 0 0 0 0 0 0 0 0 0 0 0 0 0 0 0 0 0 0 0 0 0 0 0 0 0 0 0 0 0 0 0 0 0
6 6 6 6 6 0 0 0 0 0 0 0 0 0 0 0 0 0 0 0 0 0 0 0 0 0 0 0 0 0 0 0 0 0 0 0 0 0 0 0 0 0 0
3 6 3 3 3 3 3 3 0 0 0 0 0 0 0 0 0 0 0 0 0 0 0 0 0 0 0 0 0 0 0 0 0 0 0 0 0 0 0 0 0 0 0
3 3 3 3 3 3 3 3 3 3 0 0 0 0 0 0 0 0 0 0 0 0 0 0 0 0 0 0 0 0 0 0 0 0 0 0 0 0 0 0 0 0 0
0 3 3 3 0 0 0 0 0 0 0 0 0 0 0 0 0 0 0 0 0 0 0 0 0 0 0 0 0 0 0 0 0 0 0 0 0 0 0 0 0 0 0
0 0 0 0 0 0 0 0 0 0 0 0 0 0 0 0 0 0 0 0 0 0 0 0 0 0 0 0 0 0 0 0 0 0 0 0 0 0 0 0 0 0 0
0 0 0 0 0 0 0 0 0 0 0 0 0 0 0 0 0 0 0 0 0 0 0 0 0 0 0 0 0 0 0 0 0 0 0 0 0 0 0 0 0 0 0

GEFSGL_con_cape1000_276.txt.gz
Probability
10 10 13 6 6 3 6 6 6 3 3 6 10 13 10 16 16 19 16 16 16 19 13 10 16 10 10 10 13 6 3 3 6 6 6 6 3 3 3 3 3 3 3
10 13 16 19 13 19 13 13 6 3 6 6 16 16 16 16 19 19 19 16 16 19 23 19 16 10 13 13 13 13 10 6 10 10 13 10 10 3 3 6 3 3 3
10 13 13 16 13 19 23 19 16 19 23 13 16 16 16 19 19 16 19 23 19 19 23 19 19 16 16 13 13 13 10 10 10 10 13 16 6 3 3 3 3 6 3
10 13 16 13 13 19 13 16 19 23 26 26 19 19 16 16 16 19 23 23 23 19 16 19 19 19 19 19 16 16 13 13 13 6 19 19 16 10 10 10 10 6 6
13 13 10 16 16 19 16 19 16 16 19 23 26 23 23 19 23 23 23 23 23 19 16 19 19 16 13 13 13 13 13 13 19 19 19 19 19 10 10 10 10 10 10
16 16 16 16 23 23 23 19 16 16 13 13 19 29 29 29 19 13 23 23 23 19 19 23 19 16 13 13 10 10 13 16 16 16 16 19 19 19 16 10 10 13 13
16 19 19 19 26 26 26 16 16 19 13 13 10 23 23 26 6 3 6 16 26 23 19 19 16 13 10 13 10 3 3 3 6 13 16 16 19 19 16 13 13 16 19
19 19 23 26 23 19 16 19 16 16 13 13 13 13 19 19 3 0 0 0 19 16 19 16 19 19 13 13 13 13 13 10 3 3 3 10 10 6 10 10 13 13 16
16 19 19 16 16 10 16 16 16 13 13 13 13 13 19 23 6 0 0 6 19 23 19 19 19 19 10 6 10 13 10 6 3 3 3 3 0 0 3 3 13 10 13
16 13 13 13 13 10 13 13 6 13 13 13 16 13 13 16 13 0 0 10 19 16 19 23 3 6 3 3 3 10 10 10 6 3 3 0 0 0 0 3 3 6 6
10 13 13 13 13 13 13 10 6 6 13 10 16 16 16 16 16 3 0 6 19 16 13 16 16 3 3 3 3 3 10 3 6 6 6 3 3 3 3 3 3 6 6
10 10 13 13 13 13 10 6 6 6 3 10 13 10 10 3 6 6 3 0 3 13 13 13 16 0 0 0 0 3 3 3 3 3 6 6 6 6 6 3 3 3 6
6 6 10 10 13 13 6 6 6 3 3 10 10 10 6 6 3 0 0 0 0 3 6 6 0 0 0 0 0 0 0 0 3 3 3 3 6 6 6 6 3 0 0
6 6 6 10 13 13 10 10 6 6 6 6 10 10 6 3 3 3 0 0 0 0 0 0 0 0 0 0 0 0 0 0 3 3 3 3 3 3 3 3 3 0 0
6 6 6 10 10 6 6 6 3 3 6 6 6 3 3 3 3 3 3 0 3 6 6 0 0 0 0 0 0 0 0 0 0 3 3 3 3 3 3 0 0 0 0
6 6 6 10 6 3 3 6 3 3 3 3 3 3 3 3 3 0 0 0 0 0 0 0 0 0 0 0 0 0 0 0 0 3 3 3 3 3 0 0 0 0 0
3 3 6 6 3 3 3 3 6 3 0 0 0 0 3 3 3 0 0 0 0 0 0 0 3 0 0 0 0 0 0 0 0 0 0 3 0 0 0 0 0 0 0
3 3 6 3 3 3 3 3 6 6 6 3 0 0 0 0 0 0 0 0 0 0 0 0 0 0 0 0 0 0 0 0 0 0 0 3 0 0 0 0 0 0 0
6 6 3 3 3 3 3 3 6 3 3 3 0 0 0 0 0 0 0 0 0 0 0 0 0 0 0 0 0 0 0 0 0 0 0 0 0 0 0 0 0 0 0
3 3 3 3 3 3 3 3 3 3 3 3 3 0 0 0 0 0 0 0 0 0 0 0 0 0 0 0 0 0 0 3 0 0 0 0 0 0 0 0 0 0 0
3 3 3 3 3 3 3 3 3 3 3 3 0 0 0 0 0 0 0 0 0 0 0 0 0 0 0 0 0 0 0 3 3 0 0 0 0 0 0 0 0 0 0
3 3 3 3 3 3 6 3 3 3 3 0 0 0 0 0 0 0 0 0 0 0 0 0 0 0 0 0 0 0 0 0 0 0 0 0 0 0 0 0 0 0 0
3 3 3 3 3 3 3 3 3 0 0 0 0 0 0 0 0 0 0 0 0 0 0 0 0 0 0 0 0 0 0 0 0 0 0 0 0 0 0 0 0 0 0
0 0 0 0 0 0 3 3 3 3 3 3 0 0 0 0 0 0 0 0 0 0 0 0 0 0 0 0 0 0 0 0 0 0 0 0 0 0 0 0 0 0 0
0 0 0 0 0 0 3 3 0 3 3 3 3 0 0 0 0 0 0 0 0 0 0 0 0 0 0 0 0 0 0 0 0 0 0 0 0 0 0 0 0 0 0
0 0 0 0 0 0 0 0 3 3 3 3 0 0 0 0 0 0 0 0 0 0 0 0 0 0 0 0 0 0 0 0 0 0 0 0 0 0 0 0 0 0 0

GEFSGL_con_cape1000_282.txt.gz
Probability
45 45 48 48 48 52 52 48 45 45 45 45 48 39 42 42 45 52 39 35 45 48 39 42 45 52 42 42 39 39 39 35 32 32 26 39 45 45 39 42 35 39 29
45 48 48 48 45 42 48 48 45 45 45 45 52 52 45 39 55 52 48 45 45 42 42 42 48 48 45 45 48 42 45 52 45 42 39 39 48 45 48 45 29 29 35
35 39 42 45 42 35 39 42 42 42 42 45 52 52 45 48 52 52 52 52 48 52 52 52 48 45 48 45 48 45 45 35 45 42 35 42 32 32 35 35 32 39 29
39 39 45 45 39 35 35 39 42 45 48 48 39 45 45 48 42 42 45 42 48 48 45 45 45 45 42 45 45 48 39 42 42 39 35 39 42 35 42 42 35 35 35
42 45 48 42 42 39 39 39 42 42 39 45 45 45 42 45 39 35 35 39 39 45 42 42 42 42 39 39 29 35 39 42 39 42 39 42 39 45 42 35 35 32 32
42 35 35 42 42 42 39 39 39 42 39 42 48 45 45 35 19 16 26 39 39 39 42 45 45 42 32 6 6 10 23 29 39 42 42 42 42 42 52 32 35 29 35
42 32 35 35 39 39 39 39 35 42 42 42 42 39 42 35 13 0 0 32 35 42 42 39 35 32 29 39 26 3 6 6 6 42 35 39 39 32 42 29 42 29 35
35 32 35 39 35 35 39 42 39 39 39 39 39 42 42 29 16 3 0 13 39 39 32 39 39 42 29 29 42 35 32 26 13 16 29 35 39 39 45 39 35 29 29
26 29 29 32 32 32 39 35 39 39 39 42 42 39 39 35 16 3 0 32 32 35 35 39 39 35 23 10 29 35 35 35 10 3 6 10 10 6 10 23 23 23 19
13 16 23 26 26 29 35 32 32 32 32 35 32 32 35 26 13 0 0 23 29 29 32 35 16 26 19 6 29 29 23 26 32 26 6 3 3 6 3 19 26 26 16
13 13 19 26 26 32 32 32 32 32 29 29 32 32 32 19 16 3 0 19 16 16 23 26 19 10 0 0 6 23 23 19 23 29 29 29 29 32 26 16 23 23 19
19 19 19 23 19 16 26 29 26 29 29 26 29 29 23 19 13 0 0 0 6 13 16 16 13 3 0 0 0 10 6 3 16 23 23 32 29 29 26 23 23 26 26
23 26 26 26 26 23 19 26 29 29 26 26 16 16 16 16 10 3 0 0 0 6 13 6 6 3 0 0 0 0 0 3 23 19 23 23 26 26 19 26 26 29 26
19 26 29 26 23 19 19 19 19 19 16 13 10 13 10 16 16 13 10 3 0 0 3 0 0 0 0 0 0 0 3 3 10 16 16 16 19 16 19 19 13 13 19
19 16 16 16 10 13 13 16 16 16 13 13 10 10 13 13 6 6 10 3 6 6 3 6 6 6 6 6 6 10 10 10 10 6 13 10 16 13 16 16 16 10 13
13 13 10 13 10 10 6 6 3 6 3 3 3 3 6 6 3 3 3 3 3 3 3 6 10 10 10 10 10 10 10 6 6 10 6 6 6 10 10 13 13 10 10
13 6 13 10 10 10 10 6 3 3 3 0 0 3 3 3 3 3 0 0 0 0 3 3 6 6 10 6 6 6 3 6 6 6 6 10 10 6 6 6 6 3 6
6 3 3 10 10 6 6 3 3 3 3 10 0 0 0 0 0 0 0 0 0 0 3 3 6 6 6 3 3 3 3 3 6 6 6 6 6 10 6 3 3 3 3
3 6 10 10 6 6 3 3 3 3 3 6 3 3 0 0 0 0 0 3 3 3 3 3 3 3 0 0 0 3 0 3 6 6 6 6 6 6 6 3 3 3 3
6 6 10 6 6 3 3 3 3 6 6 6 3 3 0 0 3 0 0 3 3 3 3 0 0 3 3 3 3 0 0 0 0 3 3 3 3 6 3 3 3 3 3
6 10 3 3 3 3 3 3 3 6 6 6 6 3 3 6 3 3 3 3 0 0 0 0 3 3 3 3 3 0 0 0 0 0 0 3 3 3 3 3 3 3 3
10 3 3 3 3 3 3 6 6 3 3 3 3 0 0 0 3 0 0 0 0 0 0 0 0 3 3 3 3 3 0 0 0 0 0 3 3 3 3 3 3 3 3
3 3 3 3 3 3 3 3 3 3 3 0 0 0 0 3 3 3 0 0 0 0 0 0 0 3 3 3 3 3 3 0 0 0 0 0 3 3 3 3 3 3 0
3 3 3 3 3 3 3 3 0 0 0 0 3 3 3 3 3 3 3 3 0 0 0 0 0 0 3 3 3 3 3 3 0 0 0 0 0 0 0 0 0 0 0
3 3 3 0 0 0 0 0 0 3 3 0 3 3 3 3 3 3 3 3 0 0 0 0 0 0 0 3 3 3 0 0 0 0 0 0 0 0 0 0 0 0 0
0 0 0 0 0 0 0 0 0 3 3 3 3 3 3 3 3 3 0 0 0 0 0 0 0 0 0 3 0 0 0 0 0 0 0 0 0 0 0 0 0 0 0